This demonstration page uses our WeatherBlox Daily Observations layout. Learn more.

Left ArrowRight Arrow

Hourly Observations for June 12, 2019

Temp ( °F °C ) Dew Point ( °F °C ) Humidity (%) Winds ( mph kmh ) Pressure ( in mb ) Visibility ( mi km ) Precip ( " mm )
12:51 am 00:51 Clear 76 24.4 32 0 20 20 NW 7 11 29.83 1010 10 16 0.00 0.00
1:51 am 01:51 Clear 77 25 30 -1.1 18 18 NW 10 17 29.81 1009 10 16 0.00 0.00
2:51 am 02:51 Clear 74 23.3 32 0 21 21 Calm 29.81 1009 10 16 0.00 0.00
3:51 am 03:51 Clear 69 20.6 32 0 25 25 ESE 3 6 29.83 1010 10 16 0.00 0.00
4:51 am 04:51 Clear 68 20 31 -0.6 25 25 SSE 6 9 29.84 1010 10 16 0.00 0.00
5:51 am 05:51 Sunny 68 20 31 -0.6 25 25 ENE 3 6 29.86 1011 10 16 0.00 0.00
6:51 am 06:51 Sunny 76 24.4 32 0 20 20 Calm 29.87 1011 10 16 0.00 0.00
7:51 am 07:51 Sunny 81 27.2 34 1.1 18 18 Calm 29.88 1012 10 16 0.00 0.00
8:51 am 08:51 Sunny 86 30 32 0 14 14 S 3 6 29.88 1012 10 16 0.00 0.00
9:51 am 09:51 Sunny 92 33.3 33 0.6 12 12 VRB 3 6 29.86 1011 10 16 0.00 0.00
10:51 am 10:51 Sunny 96 35.6 32 0 10 10 WSW 3 6 29.84 1011 10 16 0.00 0.00
11:51 am 11:51 Sunny 99 37.2 26 -3.3 7 7 WNW 5 7 29.82 1010 10 16 0.00 0.00
12:51 pm 12:51 Sunny 101 38.3 20 -6.7 5 5 VRB 5 7 29.79 1009 10 16 0.00 0.00
1:51 pm 13:51 Sunny 101 38.3 25 -3.9 7 7 Calm 29.77 1008 10 16 0.00 0.00
2:51 pm 14:51 Sunny 103 39.4 24 -4.4 6 6 E 7 11 29.75 1007 10 16 0.00 0.00
3:51 pm 15:51 Sunny 103 39.4 24 -4.4 6 6 undefined N/A 29.73 1007 10 16 0.00 0.00
4:51 pm 16:51 Partly Cloudy 104 40 25 -3.9 6 6 WNW 9 15 29.71 1006 10 16 0.00 0.00
5:51 pm 17:51 Mostly Cloudy 103 39.4 25 -3.9 6 6 WNW 10 17 29.70 1006 10 16 0.00 0.00
6:51 pm 18:51 Partly Cloudy 100 37.8 26 -3.3 7 7 NW 8 13 29.70 1006 10 16 0.00 0.00
7:51 pm 19:51 Mostly Clear 95 35 26 -3.3 8 8 NW 10 17 29.70 1006 10 16 0.00 0.00
8:51 pm 20:51 Clear 91 32.8 24 -4.4 9 9 NW 9 15 29.72 1006 10 16 0.00 0.00
9:51 pm 21:51 Clear 88 31.1 25 -3.9 10 10 WNW 12 19 29.73 1007 10 16 0.00 0.00
10:51 pm 22:51 Clear 83 28.3 24 -4.4 11 11 NNW 5 7 29.75 1007 10 16 0.00 0.00
11:51 pm 23:51 Clear 84 28.9 24 -4.4 11 11 N 3 6 29.75 1008 10 16 0.00 0.00

Powered by AerisWeather